KX4KY-13 Weather Reports


time (UTC)temp
F
wind
direction
speed
knots
gust
knots
rain 1hr
in
rain 24hr
in
rain mn
in
humidity
%
barometer
mb
20260504012017 51 17 0.9 3.5 0.00 0.00 0.00 63 1017.1
20260504011017 51 11 0.9 1.7 0.00 0.00 0.00 64 1017.1
20260504010017 52 351 0.0 1.7 0.00 0.00 0.00 64 1017.0
20260504005017 52 3 0.0 1.7 0.00 0.00 0.00 64 1017.0
20260504004017 52 12 0.0 0.9 0.00 0.00 0.00 63 1017.0
20260504003017 53 358 0.0 2.6 0.00 0.00 0.00 62 1016.9
20260504002018 53 355 0.0 1.7 0.00 0.00 0.00 61 1016.8
20260504001018 54 14 0.9 1.7 0.00 0.00 0.00 60 1016.8
20260504000019 54 349 0.0 1.7 0.00 0.00 0.00 60 1016.7
20260503235018 55 8 0.0 1.7 0.00 0.00 0.00 59 1016.8
20260503234018 55 11 0.0 0.9 0.00 0.00 0.00 59 1016.6
20260503233018 56 3 0.9 1.7 0.00 0.00 0.00 57 1016.6
20260503232039 56 8 0.0 1.7 0.00 0.00 0.00 56 1016.6
20260503231100 57 12 0.9 2.6 0.00 0.00 0.00 54 1016.5
20260503230016 57 21 0.9 2.6 0.00 0.00 0.00 53 1016.6
20260503225019 57 26 0.0 1.7 0.00 0.00 0.00 52 1016.6
20260503224019 58 45 0.9 6.1 0.00 0.00 0.00 51 1016.7
20260503223016 58 80 0.9 3.5 0.00 0.00 0.00 52 1016.7
20260503222016 58 54 0.9 4.3 0.00 0.00 0.00 51 1016.7
20260503221017 58 49 0.9 4.3 0.00 0.00 0.00 50 1016.7
20260503220016 58 32 0.9 5.2 0.00 0.00 0.00 50 1016.7
20260503215016 59 50 1.7 5.2 0.00 0.00 0.00 49 1016.9
20260503214036 59 55 0.9 3.5 0.00 0.00 0.00 49 1016.9
20260503213016 60 359 0.9 4.3 0.00 0.00 0.00 47 1017.0
20260503212017 60 18 0.9 2.6 0.00 0.00 0.00 47 1017.1
20260503211017 60 137 1.7 4.3 0.00 0.00 0.00 46 1017.1
20260503210017 60 125 0.9 1.7 0.00 0.00 0.00 47 1017.2
20260503205018 61 359 0.9 2.6 0.00 0.00 0.00 46 1017.5
20260503204017 61 59 0.9 2.6 0.00 0.00 0.00 45 1017.5
20260503203018 62 139 1.7 3.5 0.00 0.00 0.00 44 1016.9
20260503202038 62 59 0.9 3.5 0.00 0.00 0.00 43 1017.1
20260503201018 62 22 0.9 4.3 0.00 0.00 0.00 43 1017.2
20260503200038 62 81 0.9 3.5 0.00 0.00 0.00 44 1017.3
20260503195018 62 41 0.9 3.5 0.00 0.00 0.00 44 1017.5
20260503194020 62 49 0.9 3.5 0.00 0.00 0.00 44 1017.5
20260503193017 61 34 1.7 4.3 0.00 0.00 0.00 45 1017.7
20260503192015 61 5 1.7 4.3 0.00 0.00 0.00 45 1017.8
20260503191016 62 22 1.7 4.3 0.00 0.00 0.00 46 1017.9
20260503190016 62 29 1.7 4.3 0.00 0.00 0.00 45 1017.9
20260503185038 61 122 1.7 6.1 0.00 0.00 0.00 45 1017.9
20260503184016 61 89 1.7 3.5 0.00 0.00 0.00 46 1018.2
20260503183021 61 143 0.9 3.5 0.00 0.00 0.00 43 1018.1
20260503182017 61 223 1.7 5.2 0.00 0.00 0.00 44 1018.2
20260503181017 61 69 1.7 4.3 0.00 0.00 0.00 44 1018.3
20260503180038 61 54 0.9 4.3 0.00 0.00 0.00 45 1018.2
20260503175016 61 68 0.9 3.5 0.00 0.00 0.00 43 1018.2
20260503174036 60 128 1.7 5.2 0.00 0.00 0.00 45 1018.3
20260503173018 60 35 1.7 4.3 0.00 0.00 0.00 45 1018.5
20260503172018 60 26 0.9 3.5 0.00 0.00 0.00 45 1018.6
20260503171017 59 19 1.7 5.2 0.00 0.00 0.00 47 1018.8
20260503131017 50 21 0.9 4.3 0.00 0.00 0.00 58 1018.5
20260503081029 42 0.0 0.0 0.00 0.00 0.00 71 1016.7
20260503080107 42 68 0.0 1.7 0.00 0.00 0.00 72 1016.7
20260503072028 43 53 0.0 2.6 0.00 0.00 0.00 71 1016.3
20260503071028 43 31 0.9 1.7 0.00 0.00 0.00 70 1016.2
20260503055049 44 164 0.9 1.7 0.00 0.00 0.00 66 1016.1
20260503054029 44 146 1.7 3.5 0.00 0.00 0.00 66 1016.0
20260503053030 45 146 0.9 1.7 0.00 0.00 0.00 65 1016.3
20260503052051 45 176 0.9 2.6 0.00 0.00 0.00 62 1016.3
20260503051111 45 190 0.9 3.5 0.00 0.00 0.00 63 1016.2
20260503050030 45 174 0.9 3.5 0.00 0.00 0.00 63 1016.2
20260503045030 45 190 0.9 3.5 0.00 0.00 0.00 63 1016.3
20260503044030 45 203 0.0 2.6 0.00 0.00 0.00 64 1016.3
20260503043030 45 213 0.9 2.6 0.00 0.00 0.00 64 1016.3
20260503042017 45 145 0.0 1.7 0.00 0.00 0.00 61 1016.3
20260503041037 46 182 0.9 2.6 0.00 0.00 0.00 60 1016.3
20260503040016 46 136 0.0 1.7 0.00 0.00 0.00 60 1016.1
20260503035016 46 175 0.9 2.6 0.00 0.00 0.00 59 1016.0
20260503034058 46 175 0.9 5.2 0.00 0.00 0.00 59 1015.8
20260503033018 46 37 0.9 2.6 0.00 0.00 0.00 59 1015.7
20260503032018 46 168 0.0 2.6 0.00 0.00 0.00 60 1015.8
20260503031016 47 89 0.0 4.3 0.00 0.00 0.00 61 1015.7
20260503030018 47 49 0.9 2.6 0.00 0.00 0.00 59 1015.7
20260503025017 47 43 1.7 3.5 0.00 0.00 0.00 58 1015.3
20260503024018 48 172 1.7 5.2 0.00 0.00 0.00 55 1014.9
20260503023038 48 121 1.7 4.3 0.00 0.00 0.00 55 1014.9
20260503022017 48 134 1.7 4.3 0.00 0.00 0.00 55 1014.8
20260503021018 48 134 1.7 4.3 0.00 0.00 0.00 55 1014.7
20260503020018 48 147 0.9 4.3 0.00 0.00 0.00 55 1014.7
20260503015018 48 147 1.7 5.2 0.00 0.00 0.00 54 1014.5
20260503014018 49 140 1.7 5.2 0.00 0.00 0.00 53 1014.1
20260503013018 49 160 1.7 3.5 0.00 0.00 0.00 53 1014.2